Weather History for KAIA - October, 2012

Change the Weather History Date:

Monday, October 29, 2012

  Actual Average Record
Temperature  
Mean Temperature 48 °F 41 °F  
Max Temperature 70 °F 57 °F 85 °F (1937)
Min Temperature 26 °F 25 °F -5 °F (1917)
Degree Days  
Heating Degree Days 17 24  
Month to date heating degree days 576 547  
Since 1 July heating degree days 739 792  
Cooling Degree Days 0 0  
Month to date cooling degree days 0 0  
Year to date cooling degree days 959 563  
Moisture  
Dew Point 34 °F    
Average Humidity 60    
Maximum Humidity 92    
Minimum Humidity 28    
Precipitation  
Precipitation 0.00 in 0.01 in 1.54 in (1979)
Month to date precipitation 0.72 1.07  
Year to date precipitation 6.53 14.87  
Sea Level Pressure  
Sea Level Pressure 30.01 in    
Wind  
Wind Speed 6 mph (WSW)    
Max Wind Speed 17 mph    
Max Gust Speed 21 mph    
Visibility 10 miles    
Events      
T = Trace of Precipitation, MM = Missing Value Source: NWS Daily Summary

Daily Weather History Graph

Daily Weather History Graph

Search for Another Location

Airport or City:

Trip Planner

Search our weather history database for the weather conditions in past years. The results will help you decide how hot, cold, wet, or windy it might be!

Date:

Astronomy

Oct. 29, 2012 Rise Set
Actual Time 7:20 AM MDT 5:48 PM MDT
Civil Twilight 6:52 AM MDT 6:17 PM MDT
Nautical Twilight 6:19 AM MDT 6:49 PM MDT
Astronomical Twilight 5:46 AM MDT 7:22 PM MDT
Moon 5:40 PM MDT (10/29) 7:13 AM MDT (10/29)
Length of Visible Light 11h 25m
Length of Day
10h 27m
Full, 100% of the Moon is Illuminated
Oct 29
Full
Oct 29
Full
Nov 6
Last Quarter
Nov 13
New
Nov 20
First Quarter

Hourly Weather History & Observations

Time (MDT) Temp. Windchill Dew Point Humidity Pressure Visibility Wind Dir Wind Speed Gust Speed Precip Events Conditions
12:53 AM 33.1 °F - 30.9 °F 92% 30.01 in 10.0 mi Calm Calm - N/A   Clear
1:53 AM 30.9 °F - 28.0 °F 89% 30.03 in 10.0 mi Calm Calm - N/A   Clear
2:53 AM 28.9 °F - 27.0 °F 92% 30.03 in 10.0 mi Calm Calm - N/A   Clear
3:53 AM 30.0 °F 26.5 °F 28.0 °F 92% 30.02 in 10.0 mi SW 3.5 mph - N/A   Clear
4:53 AM 30.0 °F 23.2 °F 28.0 °F 92% 30.03 in 10.0 mi WSW 6.9 mph - N/A   Clear
5:53 AM 28.9 °F - 26.1 °F 89% 30.06 in 10.0 mi Calm Calm - N/A   Clear
6:53 AM 30.9 °F - 28.0 °F 89% 30.07 in 10.0 mi Calm Calm - N/A   Clear
7:53 AM 28.9 °F 23.9 °F 27.0 °F 92% 30.10 in 10.0 mi SW 4.6 mph - N/A   Clear
8:53 AM 37.0 °F - 34.0 °F 89% 30.09 in 10.0 mi Calm Calm - N/A   Clear
9:53 AM 50.0 °F - 39.9 °F 68% 30.06 in 10.0 mi SW 5.8 mph - N/A   Clear
10:53 AM 61.0 °F - 41.0 °F 48% 30.02 in 10.0 mi West 8.1 mph - N/A   Clear
11:53 AM 66.0 °F - 37.9 °F 36% 30.00 in 10.0 mi West 11.5 mph - N/A   Clear
12:53 PM 68.0 °F - 37.0 °F 32% 29.97 in 10.0 mi West 13.8 mph 18.4 mph N/A   Clear
1:53 PM 69.1 °F - 37.0 °F 31% 29.96 in 10.0 mi West 15.0 mph - N/A   Clear
2:53 PM 69.1 °F - 36.0 °F 30% 29.95 in 10.0 mi West 11.5 mph - N/A   Clear
3:53 PM 69.1 °F - 37.0 °F 31% 29.95 in 10.0 mi WSW 9.2 mph - N/A   Clear
4:53 PM 64.0 °F - 37.9 °F 38% 29.96 in 10.0 mi SW 5.8 mph - N/A   Clear
5:53 PM 60.1 °F - 39.0 °F 46% 29.98 in 10.0 mi West 3.5 mph - N/A   Clear
6:53 PM 51.1 °F - 37.9 °F 61% 30.01 in 10.0 mi SW 3.5 mph - N/A   Partly Cloudy
7:53 PM 44.1 °F 41.5 °F 36.0 °F 73% 30.03 in 10.0 mi SSW 4.6 mph - N/A   Clear
8:53 PM 42.8 °F - 35.6 °F 76% 29.99 in 10.0 mi Calm Calm - N/A   Clear
9:53 PM 39.9 °F 35.1 °F 35.1 °F 83% 29.99 in 10.0 mi WSW 6.9 mph - N/A   Clear
10:53 PM 37.9 °F 31.5 °F 34.0 °F 86% 29.97 in 10.0 mi West 9.2 mph - N/A   Clear
11:53 PM 37.9 °F 35.5 °F 35.1 °F 89% 29.96 in 10.0 mi West 3.5 mph - N/A   Clear